Location: Unspecified
(0.0000°N, 0.0000°E)
Time: 04:43:57
(UTC+02:00)

GPS 2-12 Rocket1 - Visible Passes

Search period start: 23 May 2015 00:00
Search period end: 02 June 2015 00:00
Orbit: 589 x 656 km, 20.0° (Epoch: 22 May)

Date Brightness Start Highest point End Pass type
(mag) Time Alt. Az. Time Alt. Az. Time Alt. Az.
23 May 4.6 06:26:22 22° S 06:27:21 24° SSE 06:31:12 10° ESE visible
23 May 3.1 20:14:51 10° WNW 20:19:20 84° SSW 20:23:56 10° ESE visible
23 May 5.0 21:59:11 10° WSW 22:01:30 21° SW 22:01:30 21° SW visible
24 May 4.0 06:42:23 25° SSW 06:44:31 38° SSE 06:48:58 10° E visible
24 May 3.7 20:32:07 10° W 20:36:26 46° SSW 20:40:26 12° SE visible
24 May 5.9 22:17:22 10° SW 22:17:30 10° SW 22:17:30 10° SW visible
25 May 6.0 05:21:18 11° ESE 05:21:18 11° ESE 05:21:37 10° ESE visible
25 May 3.3 06:58:22 20° WSW 07:01:38 67° SSE 07:06:22 10° ENE visible
25 May 4.4 20:49:45 10° WSW 20:53:35 27° SSW 20:56:26 15° SSE visible
26 May 5.2 05:37:18 23° ESE 05:37:18 23° ESE 05:39:27 10° E visible
26 May 3.3 07:14:22 13° WSW 07:18:42 70° NNW 07:23:27 10° ENE visible
26 May 5.0 21:07:49 10° WSW 21:10:49 17° SSW 21:12:26 14° S visible
27 May 4.0 05:53:16 46° ESE 05:53:16 46° ESE 05:56:54 10° E visible
27 May 4.1 07:31:15 10° W 07:35:47 40° NNW 07:40:16 10° NE visible
27 May 5.4 21:26:45 10° SSW 21:28:07 11° SSW 21:28:25 11° S visible
28 May 3.1 06:09:13 78° NNW 06:09:13 78° NNW 06:14:02 10° ENE visible
29 May 3.8 06:25:09 37° WNW 06:26:17 44° NNW 06:30:53 10° NE visible
30 May 6.1 05:03:59 13° ENE 05:03:59 13° ENE 05:04:32 10° ENE visible
30 May 4.6 06:41:03 19° WNW 06:43:24 27° NNW 06:47:28 10° NE visible
31 May 5.6 05:19:52 20° NE 05:19:52 20° NE 05:21:26 10° NE visible
31 May 5.3 06:57:21 10° WNW 07:00:36 17° NNW 07:03:47 10° NNE visible
01 Jun 5.2 05:35:43 22° NNE 05:35:43 22° NNE 05:38:04 10° NE visible
01 Jun 5.6 07:16:07 10° NW 07:17:55 12° NNW 07:19:37 10° N visible
